[[{"header":{"parameterUnit":"m.s-1","parameterCategory":1,"la1":30.2991,"la2":30.254,"lo1":-89.0895,"lo2":-89.0444,"dy":0.0017,"dx":0.0017,"nx":28,"ny":28,"refTime":"2024-04-02T21:00:00:Z","depth":0,"parameterNumber":2,"parameterNumberName":"U-component_of_WINDS"},"data":[0,0,0,0,0,0,0,0,0,0,0,0,0,0,0,0,0,0,0,0,0,0,0,0,0,0,0,0,0,0,0,0,0,0,0,0,0,0,0,0,0,0,0,0,0,0,0,0,0,0,0,0,0,0,0,0,0,0,5.3821,5.3822,0,5.3913,5.3914,5.3915,5.3911,5.3909,5.3908,5.3907,5.4001,5.4005,5.4008,0,0,0,0,0,0,0,0,0,0,0,0,0,5.3644,5.3647,5.3821,5.3823,5.3824,5.3913,5.3914,5.3916,5.3911,5.3909,5.3908,5.3906,5.4,5.4004,5.4009,0,0,0,0,0,0,0,0,0,0,0,0,0,5.3727,5.3648,5.3821,5.3832,5.3834,5.3913,5.3914,5.3916,5.3911,5.3909,5.3907,5.3905,5.3998,5.4004,5.4009,5.4083,0,0,5.4026,5.4029,0,0,0,0,0,0,0,0,5.3722,5.3733,5.3829,5.3832,5.3834,5.3899,5.3886,5.3972,5.3912,5.3882,5.3907,5.3905,5.3969,5.3976,5.3998,5.4088,5.4092,5.4027,5.403,5.4033,5.4034,0,0,0,0,0,0,0,5.3716,5.3729,5.3858,5.3831,5.3834,5.3833,5.3843,5.3902,5.3935,5.3884,5.3884,5.3895,5.3969,5.3993,5.4,5.4093,5.4027,5.4032,5.4035,5.4037,5.4251,5.4253,0,0,0,0,0,0,5.3708,5.3724,5.3855,5.386,5.3772,5.3838,5.3849,5.388,5.3934,5.3941,5.3897,5.3895,5.3984,5.3994,5.4003,5.4095,5.4033,5.4038,5.4041,5.4249,5.4251,5.4254,0,0,0,0,0,0,5.3704,5.372,5.3851,5.3793,5.3809,5.3843,5.3878,5.3883,5.3906,5.3944,5.395,5.3914,5.3983,5.3996,5.4064,5.4098,5.404,5.4045,5.4246,5.425,5.4253,5.4279,0,0,0,0,0,0,5.3699,5.3718,5.3746,5.3793,5.3812,5.391,5.388,5.3886,5.3915,5.3914,5.3962,5.3968,5.3982,5.4056,5.407,5.4105,5.405,5.4243,5.4248,5.4252,5.4275,5.4283,5.4289,0,0,0,0,0,5.3693,5.3749,5.3748,5.3763,5.3848,5.3912,5.3923,5.3938,5.3918,5.3947,5.3972,5.3967,5.4093,5.4063,5.4078,5.4116,5.4241,5.4246,5.4251,5.4272,5.4281,5.4289,0,0,0,0,0,0,5.3705,5.3755,5.3754,5.3827,5.3865,5.3911,5.3947,5.3947,5.3991,5.3987,5.4004,5.4015,5.4084,5.4107,5.4073,5.4192,5.4164,5.4173,5.4174,5.4184,5.4191,5.4184,5.4055,0,0,0,0,0,5.3716,5.3763,5.3805,5.3866,5.3885,5.3913,5.3941,5.395,5.399,5.4006,5.4035,5.4074,5.4123,5.4155,5.4201,5.4278,5.429,5.4312,5.4319,5.4325,5.4332,5.4377,5.4388,5.4271,5.4271,5.4271,0,0,5.3739,5.3773,5.3802,5.3869,5.3899,5.3949,5.3926,5.3979,5.4016,5.4013,5.408,5.4104,5.4149,5.4223,5.4256,5.4244,5.4367,5.4332,5.4336,5.434,5.4383,5.4394,5.4404,5.4275,5.4274,5.4273,0,0,5.3808,5.3837,5.3892,5.3924,5.397,5.3989,5.4002,5.4048,5.4064,5.4131,5.4131,5.4176,5.4259,5.4291,5.4319,5.4402,5.44,5.4417,5.4455,5.4498,5.4507,5.4515,5.4546,5.4557,5.4424,5.4424,5.4424,0,5.3831,5.3905,5.392,5.3974,5.4004,5.4005,5.4062,5.4091,5.4151,5.4172,5.4157,5.4263,5.4293,5.4375,5.4396,5.4418,5.4434,5.4412,5.4504,5.4513,5.4521,5.4551,5.4562,5.4426,5.4426,5.4426,5.4426,0,5.3932,5.3984,5.4022,5.4081,5.4115,5.417,5.4195,5.4228,5.4235,5.4255,5.4325,5.4362,5.4417,5.4437,5.4443,5.4521,5.4512,5.4501,5.4473,5.4534,5.4562,5.4574,5.4429,5.4428,5.4428,5.4427,0,0,5.4009,5.4077,5.4091,5.4118,5.4171,5.4211,5.4267,5.4321,5.435,5.4392,5.444,5.4511,5.4502,5.4533,5.4543,5.4581,5.4647,5.4565,5.4567,5.458,5.4737,5.4746,5.4759,5.4646,5.4648,5.465,5.4734,0,5.4084,5.4182,5.4199,5.4285,5.4334,5.4337,5.4386,5.4424,5.4445,5.449,5.4514,5.4565,5.4547,5.4567,5.4604,5.4631,5.4679,5.4625,5.4691,5.4694,5.468,5.4773,5.4782,5.486,5.4745,5.4747,5.4748,0,5.4183,5.4229,5.432,5.4368,5.4389,5.4433,5.4485,5.4528,5.4572,5.4585,5.4621,5.4627,5.4687,5.4657,5.4739,5.4702,5.4731,5.4748,5.4752,5.4759,5.4725,5.4784,5.4885,5.4897,5.4766,5.4764,5.4763,0,5.4232,5.4316,5.4382,5.4405,5.4462,5.4493,5.4519,5.4561,5.4593,5.4639,5.4661,5.4713,5.4741,5.4782,5.4803,5.4779,5.4885,5.4856,5.4898,5.4898,5.492,5.4919,5.5028,5.4938,5.4937,5.4937,5.4937,0,5.4314,5.437,5.4405,5.4446,5.4509,5.4529,5.4591,5.4616,5.4654,5.4701,5.4706,5.475,5.4774,5.4822,5.4838,5.4905,5.4918,5.4931,5.4935,5.4931,5.4929,5.495,5.4945,5.494,5.494,5.4939,5.4938,0,5.4379,5.4404,5.4477,5.4526,5.454,5.4585,5.4627,5.4667,5.4689,5.4748,5.4763,5.4797,5.4854,5.4879,5.4948,5.496,5.5036,5.5036,5.5022,5.5023,5.5064,5.506,5.5191,5.5209,5.5106,5.5107,5.5108,0,5.443,5.4473,5.4528,5.4559,5.4586,5.4636,5.467,5.4691,5.4726,5.4781,5.4815,5.4872,5.4918,5.5008,5.504,5.5094,5.5095,5.5138,5.5103,5.5099,5.5097,5.5095,5.51,5.5144,5.5145,5.5146,5.5146,0,5.4518,5.4529,5.4577,5.463,5.467,5.4713,5.4754,5.478,5.4808,5.4847,5.4905,5.4942,5.5013,5.507,5.5126,5.5153,5.5155,5.5157,5.517,5.5166,5.5157,5.5164,5.5039,5.5154,5.5153,5.5152,5.5152,5.5152,5.4578,5.4618,5.4663,5.4717,5.4751,5.479,5.4831,5.4859,5.4907,5.4968,5.4977,5.504,5.5085,5.516,5.519,5.524,5.5229,5.5247,5.5252,5.5257,5.526,5.5148,5.525,5.525,5.5249,5.5249,5.5249,0,5.4668,5.4697,5.4746,5.4805,5.4848,5.4846,5.4893,5.4929,5.4984,5.5026,5.5072,5.514,5.5196,5.5233,5.5289,5.5322,5.5325,5.5337,5.5335,5.5341,5.5265,5.5249,5.5334,5.5334,5.5334,5.5334,5.5334,5.5334,5.4719,5.4787,5.4803,5.4888,5.4918,5.4979,5.5006,5.5043,5.5077,5.5152,5.5199,5.5223,5.5263,5.5323,5.5375,5.5384,5.5405,5.5418,5.5427,5.5355,5.5346,5.5338,5.5323,5.5422,5.5422,5.5499,5.55,5.55]},{"header":{"parameterUnit":"m.s-1","parameterCategory":1,"la1":30.2991,"la2":30.254,"lo1":-89.0895,"lo2":-89.0444,"dy":0.0017,"dx":0.0017,"nx":28,"ny":28,"refTime":"2024-04-02T21:00:00:Z","depth":0,"parameterNumber":3,"parameterNumberName":"V-component_of_WINDS"},"data":[0,0,0,0,0,0,0,0,0,0,0,0,0,0,0,0,0,0,0,0,0,0,0,0,0,0,0,0,0,0,0,0,0,0,0,0,0,0,0,0,0,0,0,0,0,0,0,0,0,0,0,0,0,0,0,0,0,0,-2.2432,-2.2432,0,-2.2449,-2.2449,-2.245,-2.2486,-2.2487,-2.2488,-2.2488,-2.2503,-2.2503,-2.2502,0,0,0,0,0,0,0,0,0,0,0,0,0,-2.2428,-2.2428,-2.2431,-2.2432,-2.2432,-2.2449,-2.2449,-2.245,-2.2486,-2.2487,-2.2488,-2.2489,-2.2503,-2.2503,-2.2502,0,0,0,0,0,0,0,0,0,0,0,0,0,-2.2436,-2.2428,-2.2431,-2.2452,-2.2454,-2.2449,-2.245,-2.245,-2.2486,-2.2487,-2.2488,-2.2489,-2.2503,-2.2503,-2.2502,-2.2478,0,0,-2.2501,-2.2501,0,0,0,0,0,0,0,0,-2.2435,-2.2436,-2.2449,-2.2451,-2.2453,-2.2467,-2.2454,-2.2459,-2.2485,-2.2474,-2.2488,-2.249,-2.249,-2.2491,-2.2491,-2.2478,-2.2479,-2.2501,-2.2501,-2.2501,-2.25,0,0,0,0,0,0,0,-2.2435,-2.2435,-2.2438,-2.2449,-2.2452,-2.246,-2.2463,-2.2455,-2.2475,-2.2475,-2.2478,-2.2479,-2.2491,-2.2492,-2.2492,-2.2479,-2.2501,-2.2501,-2.25,-2.25,-2.2449,-2.2448,0,0,0,0,0,0,-2.2431,-2.2435,-2.2438,-2.2439,-2.2447,-2.2459,-2.2462,-2.2461,-2.2475,-2.2479,-2.2478,-2.2481,-2.2492,-2.2492,-2.2493,-2.2466,-2.2501,-2.25,-2.25,-2.245,-2.2449,-2.2448,0,0,0,0,0,0,-2.2431,-2.2431,-2.2437,-2.2438,-2.2439,-2.2458,-2.2457,-2.2461,-2.2462,-2.2478,-2.2482,-2.2475,-2.2493,-2.2493,-2.2482,-2.2467,-2.25,-2.25,-2.2452,-2.245,-2.2448,-2.2412,0,0,0,0,0,0,-2.2431,-2.2431,-2.2422,-2.2437,-2.2439,-2.2426,-2.2456,-2.246,-2.2461,-2.2465,-2.2476,-2.2479,-2.2494,-2.2482,-2.2481,-2.2467,-2.2499,-2.2453,-2.2451,-2.2449,-2.2414,-2.2409,-2.2404,0,0,0,0,0,-2.2431,-2.2409,-2.2421,-2.2421,-2.2428,-2.2425,-2.2426,-2.2444,-2.246,-2.2451,-2.2462,-2.2479,-2.2469,-2.2481,-2.248,-2.2465,-2.2454,-2.2451,-2.2449,-2.2416,-2.241,-2.2404,0,0,0,0,0,0,-2.239,-2.2412,-2.2425,-2.2408,-2.2415,-2.2431,-2.242,-2.2437,-2.2438,-2.2441,-2.2463,-2.2465,-2.2451,-2.2457,-2.247,-2.2443,-2.2464,-2.2462,-2.244,-2.2434,-2.2429,-2.2427,-2.2499,0,0,0,0,0,-2.2379,-2.2376,-2.2395,-2.2378,-2.2381,-2.24,-2.24,-2.2414,-2.2421,-2.2423,-2.2434,-2.2439,-2.2438,-2.2436,-2.2436,-2.2416,-2.2419,-2.2405,-2.24,-2.2396,-2.2393,-2.2385,-2.238,-2.244,-2.244,-2.244,0,0,-2.2356,-2.2368,-2.2364,-2.2371,-2.2377,-2.2374,-2.2402,-2.2396,-2.2394,-2.2422,-2.2413,-2.2421,-2.2429,-2.2413,-2.2407,-2.2418,-2.2378,-2.2393,-2.239,-2.2389,-2.2382,-2.2376,-2.2371,-2.2438,-2.2438,-2.2439,0,0,-2.2313,-2.2321,-2.231,-2.2317,-2.2327,-2.2341,-2.2338,-2.2353,-2.236,-2.2351,-2.2373,-2.237,-2.2367,-2.2372,-2.2374,-2.2337,-2.2353,-2.2336,-2.231,-2.2302,-2.2297,-2.2293,-2.228,-2.2276,-2.2333,-2.2333,-2.2333,0,-2.2283,-2.2279,-2.2301,-2.2295,-2.2297,-2.2325,-2.2314,-2.2319,-2.2328,-2.2329,-2.2342,-2.234,-2.2347,-2.2335,-2.2326,-2.2327,-2.2324,-2.2334,-2.2296,-2.2292,-2.2289,-2.2277,-2.2272,-2.2331,-2.2331,-2.2332,-2.2332,0,-2.2242,-2.2239,-2.2228,-2.2239,-2.224,-2.2231,-2.2252,-2.225,-2.2265,-2.2277,-2.2269,-2.2279,-2.2282,-2.228,-2.2293,-2.227,-2.2277,-2.2292,-2.2314,-2.2281,-2.227,-2.2266,-2.2328,-2.2329,-2.233,-2.233,0,0,-2.2171,-2.2197,-2.2192,-2.2199,-2.2214,-2.2212,-2.2205,-2.2209,-2.2208,-2.2215,-2.2209,-2.2208,-2.2223,-2.2226,-2.224,-2.2233,-2.2204,-2.225,-2.225,-2.2241,-2.2181,-2.2169,-2.2163,-2.2215,-2.2215,-2.2214,-2.218,0,-2.2132,-2.2122,-2.2143,-2.2127,-2.2125,-2.2154,-2.2148,-2.2156,-2.2168,-2.2168,-2.2181,-2.218,-2.22,-2.2202,-2.2196,-2.2209,-2.2192,-2.2212,-2.2211,-2.221,-2.2208,-2.2158,-2.2144,-2.2112,-2.2176,-2.2176,-2.2175,0,-2.2083,-2.209,-2.2075,-2.2094,-2.2093,-2.2088,-2.2095,-2.2095,-2.2106,-2.2115,-2.212,-2.2138,-2.2132,-2.2154,-2.2147,-2.216,-2.2161,-2.2168,-2.2167,-2.2167,-2.219,-2.2157,-2.2102,-2.2097,-2.2169,-2.2169,-2.217,0,-2.2034,-2.2039,-2.2031,-2.2035,-2.2057,-2.2052,-2.2061,-2.2074,-2.2076,-2.2082,-2.2084,-2.2089,-2.2091,-2.2095,-2.2114,-2.2128,-2.2106,-2.2128,-2.2113,-2.2113,-2.2106,-2.2106,-2.2051,-2.2107,-2.2107,-2.2107,-2.2107,0,-2.1987,-2.1977,-2.201,-2.2005,-2.1995,-2.202,-2.2009,-2.202,-2.2032,-2.203,-2.2054,-2.2052,-2.2077,-2.2078,-2.2092,-2.2086,-2.2086,-2.2094,-2.2098,-2.2091,-2.2091,-2.2092,-2.2095,-2.2106,-2.2106,-2.2107,-2.2107,0,-2.193,-2.1951,-2.1945,-2.1967,-2.1973,-2.1964,-2.1983,-2.198,-2.1994,-2.1992,-2.1993,-2.2015,-2.2017,-2.2037,-2.2043,-2.2053,-2.204,-2.2048,-2.2037,-2.2039,-2.2024,-2.2025,-2.1967,-2.1961,-2.2021,-2.202,-2.202,0,-2.1899,-2.1892,-2.1915,-2.1916,-2.1924,-2.1925,-2.1928,-2.1953,-2.1956,-2.197,-2.1965,-2.1969,-2.1974,-2.1976,-2.1993,-2.1998,-2.2007,-2.1986,-2.2007,-2.2002,-2.2007,-2.2007,-2.2007,-2.1981,-2.1981,-2.198,-2.1979,0,-2.1841,-2.1853,-2.1857,-2.1866,-2.187,-2.1877,-2.1886,-2.1886,-2.1913,-2.1915,-2.1918,-2.1922,-2.193,-2.1935,-2.1943,-2.1952,-2.197,-2.1973,-2.197,-2.1963,-2.1957,-2.1961,-2.2025,-2.1974,-2.1974,-2.1975,-2.1975,-2.1975,-2.1797,-2.1793,-2.1809,-2.1813,-2.1823,-2.1832,-2.1831,-2.1846,-2.185,-2.1859,-2.1874,-2.1875,-2.1889,-2.1903,-2.1911,-2.1912,-2.1923,-2.1918,-2.1917,-2.1915,-2.1913,-2.1957,-2.1914,-2.1914,-2.1914,-2.1914,-2.1915,0,-2.1741,-2.1753,-2.1757,-2.1771,-2.1775,-2.1794,-2.1805,-2.1807,-2.1809,-2.1821,-2.1826,-2.1831,-2.1836,-2.1855,-2.1862,-2.186,-2.1869,-2.1861,-2.1861,-2.1863,-2.1902,-2.1904,-2.1854,-2.1854,-2.1854,-2.1854,-2.1854,-2.1854,-2.1712,-2.1708,-2.1721,-2.1722,-2.1735,-2.1738,-2.1743,-2.1752,-2.1762,-2.1767,-2.1772,-2.1784,-2.1799,-2.1808,-2.1814,-2.1819,-2.1821,-2.181,-2.1818,-2.1854,-2.186,-2.1866,-2.1868,-2.181,-2.181,-2.1779,-2.1779,-2.1779]}]]